Simultaneous Nadir Overpasses (SNOs) Predictions

Prediction of SNOs near US between AQUA and NPP Satellite Orbit:

Table of predicted SNOs near US for the next 10.0 days since TLE Epoch: 11/23/2013
Index Date (AQUA) Time (AQUA) AQUA Lat,Lon Date (NPP) Time (NPP) NPP Lat,Lon Distance(km) Time Diff (sec)
1 11/24/2013 07:19:35 49.93, -76.17 11/24/2013 07:21:38 50.30, -78.11 144.65 123
2 11/24/2013 08:58:28 49.93,-100.89 11/24/2013 09:03:06 50.42,-103.43 189.18 278
3 11/26/2013 18:17:43 49.96, -80.37 11/26/2013 18:11:59 49.69, -81.76 103.96 344
4 11/26/2013 19:56:36 49.96,-105.09 11/26/2013 19:53:28 49.63,-107.11 149.20 188
5 11/26/2013 21:31:35 36.01,-124.99 11/26/2013 21:30:55 35.55,-127.37 220.55 40
6 11/29/2013 09:23:54 24.91,-113.25 11/29/2013 09:16:55 24.93,-113.47 22.39 419
7 12/02/2013 06:30:52 46.74, -65.04 12/02/2013 06:32:03 47.11, -66.83 142.05 71
8 12/02/2013 08:08:51 49.94, -88.48 12/02/2013 08:12:36 50.39, -90.79 171.97 225
9 12/02/2013 09:47:44 49.94,-113.20 12/02/2013 09:54:04 50.51,-116.11 216.47 380




NCC Satellite Simultaneous Nadir Overpasses (SNOs) Prediction Service
